"startDT [UTC]","vpos","CH4 [ppm]","stdev(CH4) [ppm]","CO2 [ppm]","stdev(CO2) [ppm]","H2O [ppm]","stdev(H2O)","p_LGR [torr]","T_LGR [C]","mt1_LGR [us]","mt2_LGR [us]","T_ECpre [C]","T_EC1 [C]","T_EC2 [C]","p_inlet [hPa]","p_in [hPa]","p_out [hPa]","T_inlet [C]","RH_inlet [%]","dwpt_inlet [C]","T_vent [C]","RH_vent [%]","dwpt_vent [C]","flow_vent [l min-1]","flow_inlet [l min-1]","dwpt_sample [C]","T_room [C]"
2012-03-22 00:00:00,0.0,1.9291,0.0009,400.72,0.19,-1.0,0.0,138.14,28.47,24.61,36.32,0.04,-272.73,-272.74,-50,560,-926,22.4,1.3,-33.4,22.5,1.4,-33.0,5.73,2.38,-32.7,25.6
2012-03-22 00:01:00,0.0,1.9296,0.0009,400.76,0.18,-1.0,0.0,138.15,28.44,24.61,36.32,0.04,-272.74,-272.74,-50,561,-926,22.3,1.3,-33.4,22.4,1.4,-33.2,5.73,2.39,-32.9,25.4
2012-03-22 00:02:00,0.0,1.9290,0.0009,400.76,0.20,-1.0,0.0,138.15,28.41,24.61,36.32,0.04,-272.73,-272.74,-50,560,-926,22.3,1.3,-33.5,22.3,1.4,-33.1,5.73,2.38,-33.0,25.2
2012-03-22 00:03:00,0.0,1.9283,0.0009,400.79,0.21,-1.0,0.0,138.16,28.37,24.61,36.31,0.04,-272.74,-272.74,-50,560,-926,22.2,1.3,-33.5,22.2,1.4,-33.1,5.73,2.34,-33.2,25.7
2012-03-22 00:04:00,0.0,1.9283,0.0010,400.82,0.22,-1.0,0.0,138.16,28.34,24.61,36.32,0.04,-272.73,-272.74,-50,559,-926,22.2,1.4,-33.4,22.2,1.4,-33.0,5.73,2.27,-33.1,26.1
2012-03-22 00:05:00,0.0,1.9282,0.0011,400.70,0.21,-1.0,0.0,138.15,28.32,24.61,36.32,0.04,-272.74,-272.74,-50,559,-926,22.1,1.4,-33.0,22.2,1.5,-32.7,5.73,2.48,-33.0,26.4
2012-03-22 00:06:00,0.0,1.9283,0.0009,400.64,0.21,-1.0,0.0,138.15,28.30,24.61,36.32,0.04,-272.74,-272.73,-50,558,-925,22.1,1.4,-33.1,22.2,1.4,-32.9,5.73,2.30,-32.9,26.6
2012-03-22 00:07:00,0.0,1.9284,0.0010,400.72,0.21,-1.0,0.0,138.14,28.28,24.61,36.31,0.04,-272.73,-272.73,-50,559,-925,22.1,1.4,-33.3,22.2,1.4,-32.9,5.73,2.45,-32.8,26.8
2012-03-22 00:08:00,0.0,1.9287,0.0008,400.64,0.18,-1.0,0.0,138.14,28.28,24.60,36.32,0.04,-272.73,-272.73,-49,558,-925,22.1,1.4,-33.4,22.2,1.4,-32.9,5.73,2.30,-32.8,26.9
2012-03-22 00:09:00,0.0,1.9290,0.0008,400.64,0.21,-1.0,0.0,138.14,28.27,24.60,36.31,0.04,-272.74,-272.74,-50,558,-925,22.1,1.4,-33.4,22.2,1.4,-32.9,5.73,2.47,-32.7,27.0
2012-03-22 00:10:00,0.0,1.9286,0.0010,400.59,0.19,-1.0,0.0,138.14,28.27,24.60,36.32,0.04,-272.73,-272.74,-48,561,-925,22.0,1.4,-33.4,22.3,1.4,-32.8,5.73,2.27,-32.6,27.0
2012-03-22 00:11:00,0.0,1.9284,0.0009,400.44,0.23,-1.0,0.0,138.13,28.27,24.60,36.32,0.04,-272.74,-272.74,-50,558,-925,22.1,1.4,-33.4,22.3,1.4,-33.0,5.73,2.49,-32.5,27.0
2012-03-22 00:12:00,0.0,1.9287,0.0009,400.54,0.21,-1.0,0.0,138.13,28.27,24.61,36.31,0.04,-272.74,-272.73,-49,558,-925,22.0,1.4,-33.4,22.3,1.4,-32.8,5.73,2.27,-32.5,27.1
2012-03-22 00:13:00,0.0,1.9287,0.0010,400.50,0.17,-1.0,0.0,138.13,28.27,24.60,36.32,0.04,-272.74,-272.74,-50,558,-925,22.1,1.4,-33.5,22.3,1.4,-33.0,5.73,2.48,-32.4,27.1
2012-03-22 00:14:00,0.0,1.9293,0.0008,400.42,0.18,-1.0,0.0,138.13,28.27,24.60,36.33,0.04,-272.73,-272.74,-48,559,-924,22.0,1.3,-33.6,22.3,1.4,-33.1,5.73,2.29,-32.4,27.1
2012-03-22 00:15:00,0.0,1.9298,0.0010,400.52,0.20,-1.0,0.0,138.13,28.28,24.60,36.32,0.04,-272.73,-272.74,-50,557,-924,22.1,1.4,-33.5,22.3,1.4,-33.0,5.73,2.45,-32.3,27.2
2012-03-22 00:16:00,0.0,1.9291,0.0008,400.51,0.19,-1.0,0.0,138.13,28.28,24.61,36.32,0.04,-272.74,-272.73,-49,558,-925,22.1,1.3,-33.6,22.3,1.4,-33.3,5.73,2.33,-32.3,27.2
2012-03-22 00:17:00,0.0,1.9301,0.0008,400.63,0.20,-1.0,0.0,138.12,28.29,24.60,36.32,0.04,-272.74,-272.73,-49,558,-925,22.1,1.3,-33.8,22.3,1.4,-33.2,5.73,2.41,-32.2,27.1
2012-03-22 00:18:00,0.0,1.9304,0.0011,400.59,0.19,-1.0,0.0,138.12,28.29,24.60,36.32,0.04,-272.73,-272.73,-49,558,-925,22.1,1.3,-33.9,22.3,1.4,-33.2,5.73,2.33,-32.2,27.1
2012-03-22 00:19:00,0.0,1.9297,0.0009,400.56,0.20,-1.0,0.0,138.12,28.29,24.61,36.32,0.04,-272.74,-272.74,-49,558,-924,22.1,1.3,-33.7,22.3,1.3,-33.4,5.73,2.47,-32.1,27.1
2012-03-22 00:20:00,0.0,1.9301,0.0008,400.53,0.18,-1.0,0.0,138.12,28.30,24.61,36.33,0.04,-272.73,-272.74,-49,558,-925,22.1,1.3,-34.0,22.3,1.3,-33.4,5.73,2.27,-32.1,27.1
2012-03-22 00:21:00,0.0,1.9306,0.0009,400.67,0.20,-1.0,0.0,138.12,28.30,24.61,36.32,0.04,-272.73,-272.73,-49,558,-925,22.1,1.3,-33.9,22.3,1.4,-33.4,5.73,2.45,-32.0,27.2
2012-03-22 00:22:00,0.0,1.9299,0.0009,400.63,0.16,-1.0,0.0,138.12,28.31,24.61,36.32,0.04,-272.73,-272.73,-49,557,-925,22.1,1.3,-34.0,22.4,1.3,-33.4,5.73,2.39,-32.0,27.2
2012-03-22 00:23:00,0.0,1.9297,0.0010,400.67,0.20,-1.0,0.0,138.12,28.31,24.61,36.32,0.04,-272.73,-272.73,-49,558,-924,22.1,1.3,-33.8,22.4,1.4,-33.3,5.73,2.28,-31.9,27.2
2012-03-22 00:24:00,0.0,1.9297,0.0009,400.64,0.17,-1.0,0.0,138.12,28.32,24.61,36.32,0.04,-272.73,-272.74,-48,558,-925,22.1,1.4,-33.4,22.4,1.4,-32.9,5.73,2.48,-31.9,27.3
2012-03-22 00:25:00,0.0,1.9300,0.0009,400.71,0.22,-1.0,0.0,138.12,28.32,24.60,36.32,0.04,-272.74,-272.73,-50,553,-925,22.1,1.3,-33.5,22.4,1.4,-33.0,5.73,2.33,-31.9,27.3
2012-03-22 00:26:00,0.0,1.9298,0.0009,400.64,0.21,-1.0,0.0,138.12,28.32,24.61,36.32,0.04,-272.74,-272.74,-49,557,-925,22.1,1.3,-33.5,22.4,1.4,-32.9,5.73,2.33,-31.8,27.3
2012-03-22 00:27:00,0.0,1.9295,0.0010,400.66,0.18,-1.0,0.0,138.12,28.33,24.61,36.32,0.04,-272.73,-272.74,-49,558,-925,22.1,1.4,-33.4,22.4,1.4,-32.8,5.73,2.48,-31.8,27.4
2012-03-22 00:28:00,0.0,1.9292,0.0011,400.59,0.18,-1.0,0.0,138.12,28.33,24.61,36.33,0.04,-272.74,-272.73,-49,558,-924,22.2,1.4,-33.1,22.4,1.4,-32.7,5.73,2.27,-31.8,27.4
2012-03-22 00:29:00,0.0,1.9298,0.0009,400.66,0.21,-1.0,0.0,138.12,28.34,24.60,36.33,0.04,-272.74,-272.74,-49,558,-924,22.2,1.4,-33.1,22.4,1.5,-32.5,5.73,2.42,-31.7,27.4
2012-03-22 00:30:00,0.0,1.9296,0.0010,400.62,0.21,-1.0,0.0,138.11,28.34,24.61,36.33,0.04,-272.73,-272.74,-49,558,-925,22.2,1.4,-32.9,22.4,1.5,-32.5,5.73,2.42,-31.7,27.5
2012-03-22 00:31:00,0.0,1.9302,0.0011,400.66,0.19,-1.0,0.0,138.11,28.35,24.61,36.33,0.04,-272.73,-272.73,-48,559,-924,22.2,1.4,-32.9,22.4,1.5,-32.4,5.73,2.27,-31.7,27.5
2012-03-22 00:32:00,0.0,1.9309,0.0008,400.72,0.23,-1.0,0.0,138.11,28.35,24.61,36.33,0.04,-272.73,-272.73,-49,557,-925,22.2,1.4,-33.0,22.4,1.5,-32.5,5.73,2.48,-31.6,27.5
2012-03-22 00:33:00,0.0,1.9310,0.0008,400.68,0.21,-1.0,0.0,138.11,28.36,24.61,36.33,0.04,-272.74,-272.74,-49,558,-925,22.2,1.4,-33.1,22.5,1.5,-32.6,5.73,2.33,-31.6,27.6
2012-03-22 00:34:00,0.0,1.9310,0.0009,400.72,0.21,-1.0,0.0,138.11,28.36,24.61,36.33,0.04,-272.73,-272.74,-48,558,-925,22.3,1.4,-33.1,22.5,1.5,-32.5,5.73,2.32,-31.5,27.6
2012-03-22 00:35:00,0.0,1.9309,0.0009,400.71,0.21,-1.0,0.0,138.11,28.37,24.61,36.33,0.04,-272.73,-272.74,-49,559,-925,22.3,1.4,-33.1,22.5,1.5,-32.5,5.73,2.48,-31.5,27.7
2012-03-22 00:36:00,0.0,1.9313,0.0010,400.63,0.23,-1.0,0.0,138.11,28.37,24.61,36.34,0.04,-272.74,-272.74,-49,558,-925,22.3,1.4,-33.2,22.5,1.4,-32.7,5.73,2.27,-31.5,27.7
2012-03-22 00:37:00,0.0,1.9308,0.0011,400.74,0.22,-1.0,0.0,138.11,28.38,24.61,36.33,0.04,-272.74,-272.74,-49,559,-925,22.3,1.4,-33.2,22.5,1.4,-32.8,5.73,2.41,-31.5,27.8
2012-03-22 00:38:00,0.0,1.9310,0.0009,400.82,0.20,-1.0,0.0,138.11,28.38,24.61,36.32,0.04,-272.74,-272.73,-49,559,-925,22.3,1.4,-33.2,22.5,1.4,-32.7,5.73,2.42,-31.4,27.8
2012-03-22 00:39:00,0.0,1.9312,0.0009,400.80,0.16,-1.0,0.0,138.11,28.39,24.61,36.32,0.04,-272.74,-272.74,-49,558,-925,22.3,1.4,-33.1,22.5,1.4,-32.6,5.73,2.27,-31.4,27.8
2012-03-22 00:40:00,0.0,1.9316,0.0009,400.84,0.21,-0.9,0.3,138.11,28.40,24.60,36.33,0.04,-272.74,-272.74,-49,559,-925,22.3,1.4,-33.1,22.5,1.4,-32.7,5.73,2.48,-31.4,27.8
2012-03-22 00:41:00,0.0,1.9312,0.0009,400.74,0.21,-1.0,0.0,138.11,28.40,24.61,36.33,0.04,-272.74,-272.74,-49,558,-925,22.3,1.4,-33.0,22.5,1.4,-32.6,5.73,2.30,-31.4,27.8
2012-03-22 00:42:00,0.0,1.9317,0.0009,400.78,0.21,-1.0,0.2,138.11,28.41,24.61,36.33,0.04,-272.73,-272.74,-49,559,-925,22.3,1.4,-33.0,22.5,1.5,-32.5,5.73,2.36,-31.3,27.8
2012-03-22 00:43:00,0.0,1.9314,0.0009,400.83,0.21,-0.8,1.9,138.11,28.42,24.61,36.33,0.04,-272.74,-272.74,-49,559,-925,22.4,1.4,-32.8,22.5,1.5,-32.4,5.73,2.46,-31.3,27.9
2012-03-22 00:44:00,0.0,1.9329,0.0016,400.80,0.17,-1.0,0.0,138.11,28.42,24.61,36.33,0.04,-272.73,-272.73,-49,559,-925,22.4,1.4,-32.8,22.6,1.5,-32.3,5.73,2.26,-31.3,28.0
2012-03-22 00:45:00,0.0,1.9324,0.0010,400.88,0.18,-1.0,0.0,138.11,28.43,24.61,36.33,0.04,-272.73,-272.73,-49,559,-925,22.4,1.4,-32.8,22.6,1.5,-32.3,5.73,2.46,-31.3,28.0
2012-03-22 00:46:00,0.0,1.9342,0.0011,400.91,0.19,-1.0,0.0,138.11,28.43,24.60,36.32,0.04,-272.74,-272.73,-49,560,-925,22.4,1.4,-32.8,22.6,1.5,-32.3,5.73,2.34,-31.2,28.0
2012-03-22 00:47:00,0.0,1.9328,0.0008,400.88,0.20,-0.0,4.8,138.11,28.44,24.61,36.33,0.04,-272.73,-272.74,-49,559,-925,22.4,1.4,-32.7,22.6,1.5,-32.4,5.73,2.33,-31.2,28.0
2012-03-22 00:48:00,0.0,1.9321,0.0008,400.81,0.17,-1.0,0.2,138.11,28.44,24.61,36.33,0.04,-272.74,-272.74,-49,560,-925,22.4,1.4,-32.8,22.7,1.5,-32.4,5.73,2.47,-31.2,28.0
2012-03-22 00:49:00,0.0,1.9324,0.0008,400.87,0.17,-0.8,0.8,138.11,28.45,24.61,36.32,0.04,-272.73,-272.74,-49,560,-925,22.5,1.4,-32.8,22.7,1.5,-32.3,5.73,2.25,-31.2,28.1
2012-03-22 00:50:00,0.0,1.9320,0.0011,400.89,0.19,-0.6,2.2,138.11,28.46,24.61,36.33,0.04,-272.74,-272.74,-49,560,-925,22.5,1.4,-32.7,22.7,1.5,-32.2,5.73,2.45,-31.1,28.1
2012-03-22 00:51:00,0.0,1.9318,0.0009,401.00,0.18,-0.8,1.7,138.11,28.47,24.61,36.33,0.04,-272.73,-272.74,-49,560,-925,22.5,1.4,-32.7,22.7,1.5,-32.2,5.73,2.34,-31.1,28.2
2012-03-22 00:52:00,0.0,1.9313,0.0010,401.29,0.21,-0.8,1.2,138.10,28.47,24.61,36.33,0.04,-272.73,-272.73,-49,560,-925,22.5,1.5,-32.5,22.7,1.5,-32.0,5.73,2.33,-31.1,28.1
2012-03-22 00:53:00,0.0,1.9314,0.0010,401.46,0.15,-0.8,1.8,138.10,28.48,24.61,36.33,0.04,-272.73,-272.73,-49,560,-925,22.5,1.5,-32.4,22.7,1.5,-31.9,5.73,2.45,-31.1,28.2
2012-03-22 00:54:00,0.0,1.9316,0.0009,401.47,0.18,-0.1,4.9,138.10,28.49,24.61,36.33,0.04,-272.73,-272.73,-49,560,-925,22.6,1.5,-32.2,22.7,1.5,-31.7,5.73,2.25,-31.1,28.2
2012-03-22 00:55:00,0.0,1.9318,0.0007,401.44,0.18,-0.5,2.3,138.10,28.50,24.61,36.33,0.04,-272.73,-272.73,-49,561,-925,22.6,1.5,-32.1,22.7,1.6,-31.6,5.73,2.48,-31.0,28.3
2012-03-22 00:56:00,0.0,1.9326,0.0010,401.38,0.19,-1.0,0.0,138.10,28.50,24.61,36.34,0.04,-272.73,-272.74,-49,560,-925,22.6,1.5,-31.9,22.8,1.6,-31.4,5.73,2.30,-31.0,28.2
2012-03-22 00:57:00,0.0,1.9324,0.0010,401.46,0.18,-0.7,1.7,138.10,28.51,24.61,36.33,0.04,-272.73,-272.73,-49,561,-925,22.6,1.5,-31.9,22.8,1.6,-31.3,5.73,2.38,-31.0,28.3
2012-03-22 00:58:00,0.0,1.9325,0.0011,401.48,0.19,0.3,8.0,138.10,28.52,24.61,36.33,0.04,-272.74,-272.73,-49,561,-925,22.6,1.5,-31.8,22.8,1.6,-31.3,5.73,2.41,-31.0,28.3
2012-03-22 00:59:00,0.0,1.9322,0.0011,401.40,0.16,-0.2,4.6,138.10,28.53,24.61,36.33,0.04,-272.74,-272.74,-49,561,-925,22.6,1.6,-31.7,22.8,1.6,-31.2,5.73,2.28,-31.0,28.3
2012-03-22 01:00:00,0.0,1.9324,0.0009,401.37,0.18,-0.5,2.4,138.10,28.53,24.61,36.33,0.04,-272.73,-272.74,-49,561,-925,22.7,1.6,-31.7,22.8,1.6,-31.2,5.73,2.48,-31.0,28.4
2012-03-22 01:01:00,0.0,1.9321,0.0009,401.28,0.16,-0.8,1.2,138.10,28.54,24.61,36.34,0.04,-272.74,-272.73,-49,561,-925,22.6,1.6,-31.7,22.9,1.6,-31.1,5.73,2.25,-30.9,28.4
2012-03-22 01:02:00,0.0,1.9322,0.0008,401.41,0.20,-0.8,0.8,138.10,28.55,24.61,36.33,0.04,-272.73,-272.74,-49,561,-925,22.7,1.6,-31.5,22.9,1.6,-31.0,5.73,2.47,-30.9,28.4
2012-03-22 01:03:00,0.0,1.9324,0.0008,401.45,0.21,1.8,9.8,138.10,28.56,24.61,36.33,0.04,-272.73,-272.74,-49,562,-925,22.7,1.6,-31.5,22.9,1.6,-31.0,5.73,2.39,-31.0,27.7
2012-03-22 01:04:00,0.0,1.9317,0.0009,401.40,0.19,0.0,6.2,138.11,28.56,24.61,36.33,0.04,-272.73,-272.74,-49,562,-926,22.7,1.6,-31.5,22.8,1.6,-31.1,5.73,2.36,-31.2,27.0
2012-03-22 01:05:00,0.0,1.9315,0.0010,401.41,0.23,-1.0,0.0,138.12,28.55,24.61,36.33,0.04,-272.73,-272.74,-50,562,-926,22.6,1.6,-31.4,22.8,1.7,-30.9,5.73,2.39,-31.4,26.3
2012-03-22 01:06:00,0.0,1.9312,0.0010,401.47,0.20,-1.0,0.0,138.12,28.53,24.61,36.33,0.04,-272.74,-272.74,-50,561,-926,22.6,1.6,-31.3,22.7,1.7,-30.9,5.73,2.39,-31.6,26.0
2012-03-22 01:07:00,0.0,1.9306,0.0008,401.50,0.21,-1.0,0.0,138.13,28.51,24.61,36.32,0.04,-272.73,-272.74,-49,561,-926,22.6,1.6,-31.2,22.6,1.7,-30.9,5.73,2.38,-31.8,25.8
2012-03-22 01:08:00,0.0,1.9307,0.0009,401.45,0.21,-1.0,0.0,138.14,28.49,24.61,36.33,0.04,-272.73,-272.73,-50,561,-926,22.5,1.6,-31.3,22.5,1.7,-30.9,5.73,2.38,-32.0,25.6
2012-03-22 01:09:00,0.0,1.9304,0.0009,401.60,0.20,-1.0,0.0,138.14,28.46,24.61,36.31,0.04,-272.74,-272.74,-50,561,-926,22.4,1.6,-31.3,22.5,1.7,-30.9,5.73,2.38,-32.3,25.3
2012-03-22 01:10:00,0.0,1.9303,0.0008,401.61,0.24,-1.0,0.0,138.15,28.43,24.60,36.32,0.04,-272.74,-272.74,-50,560,-926,22.4,1.7,-31.2,22.4,1.7,-30.8,5.73,2.39,-32.4,25.1
2012-03-22 01:11:00,0.0,1.9294,0.0011,401.58,0.20,-1.0,0.0,138.16,28.39,24.61,36.32,0.04,-272.73,-272.73,-50,560,-926,22.3,1.7,-31.0,22.3,1.8,-30.7,5.73,2.34,-32.6,25.4
2012-03-22 01:12:00,0.0,1.9294,0.0011,401.50,0.21,-1.0,0.0,138.15,28.36,24.60,36.32,0.04,-272.74,-272.73,-50,560,-926,22.3,1.7,-31.0,22.3,1.8,-30.7,5.73,2.30,-32.5,25.9
2012-03-22 01:13:00,0.0,1.9292,0.0009,401.56,0.21,-1.0,0.0,138.15,28.34,24.61,36.31,0.04,-272.74,-272.74,-50,559,-925,22.2,1.7,-31.0,22.3,1.8,-30.6,5.73,2.48,-32.5,26.3
2012-03-22 01:14:00,0.0,1.9295,0.0009,401.58,0.24,-1.0,0.0,138.15,28.32,24.60,36.31,0.04,-272.74,-272.73,-50,559,-926,22.2,1.7,-30.9,22.3,1.8,-30.5,5.73,2.32,-32.4,26.5
2012-03-22 01:15:00,0.0,1.9293,0.0008,401.48,0.19,-1.0,0.0,138.14,28.30,24.60,36.32,0.04,-272.74,-272.73,-50,559,-925,22.2,1.7,-30.9,22.3,1.8,-30.5,5.73,2.42,-32.3,26.7
2012-03-22 01:16:00,0.0,1.9297,0.0009,401.37,0.20,-1.0,0.0,138.14,28.29,24.60,36.32,0.04,-272.73,-272.74,-50,559,-925,22.2,1.7,-30.9,22.3,1.8,-30.5,5.73,2.32,-32.2,26.8
2012-03-22 01:17:00,0.0,1.9293,0.0008,401.32,0.22,-1.0,0.0,138.14,28.29,24.61,36.32,0.04,-272.73,-272.74,-50,558,-925,22.2,1.7,-30.9,22.3,1.8,-30.5,5.73,2.45,-32.2,26.9
2012-03-22 01:18:00,0.0,1.9293,0.0008,401.34,0.20,-1.0,0.0,138.13,28.28,24.61,36.32,0.04,-272.73,-272.74,-47,559,-927,22.2,1.7,-30.9,22.3,1.8,-30.5,5.73,2.28,-32.1,27.0
2012-03-22 01:19:00,0.0,1.9295,0.0009,401.29,0.19,-1.0,0.0,138.13,28.28,24.60,36.32,0.04,-272.73,-272.74,-50,558,-924,22.2,1.7,-30.9,22.3,1.8,-30.3,5.73,2.48,-32.0,27.0
2012-03-22 01:20:00,0.0,1.9298,0.0009,401.31,0.22,-1.0,0.0,138.13,28.29,24.60,36.32,0.04,-272.73,-272.74,-49,558,-925,22.2,1.7,-30.9,22.3,1.8,-30.3,5.73,2.27,-31.9,27.1
2012-03-22 01:21:00,0.0,1.9297,0.0009,401.31,0.21,-1.0,0.0,138.13,28.29,24.61,36.32,0.04,-272.74,-272.74,-50,558,-925,22.2,1.8,-30.6,22.3,1.8,-30.2,5.73,2.47,-31.9,27.1
2012-03-22 01:22:00,0.0,1.9300,0.0011,401.29,0.21,-1.0,0.0,138.12,28.29,24.60,36.32,0.04,-272.73,-272.74,-49,558,-925,22.2,1.8,-30.8,22.3,1.8,-30.3,5.73,2.30,-31.8,27.2
2012-03-22 01:23:00,0.0,1.9296,0.0008,401.21,0.19,-1.0,0.0,138.12,28.29,24.61,36.32,0.04,-272.74,-272.73,-50,558,-925,22.2,1.8,-30.8,22.3,1.8,-30.3,5.73,2.42,-31.7,27.2
2012-03-22 01:24:00,0.0,1.9297,0.0008,401.32,0.21,-1.0,0.0,138.12,28.30,24.61,36.31,0.04,-272.74,-272.73,-49,557,-924,22.2,1.8,-30.8,22.4,1.8,-30.3,5.73,2.36,-31.7,27.2
2012-03-22 01:25:00,0.0,1.9302,0.0010,401.34,0.17,-1.0,0.0,138.12,28.30,24.60,36.32,0.04,-272.75,-272.73,-50,558,-926,22.2,1.7,-30.9,22.4,1.8,-30.2,5.73,2.38,-31.6,27.3
2012-03-22 01:26:00,0.0,1.9296,0.0010,401.28,0.21,-1.0,0.0,138.12,28.31,24.61,36.32,0.04,-272.74,-272.74,-49,558,-926,22.2,1.7,-30.9,22.4,1.8,-30.4,5.73,2.32,-31.6,27.2
2012-03-22 01:27:00,0.0,1.9299,0.0010,401.34,0.22,-1.0,0.0,138.12,28.31,24.61,36.32,0.04,-272.74,-272.73,-49,558,-925,22.2,1.7,-30.9,22.4,1.8,-30.4,5.73,2.48,-31.5,27.3
2012-03-22 01:28:00,0.0,1.9303,0.0009,401.43,0.20,-0.9,0.6,138.12,28.32,24.60,36.31,0.04,-272.74,-272.73,-49,558,-925,22.2,1.7,-30.8,22.4,1.8,-30.4,5.73,2.27,-31.4,27.3
2012-03-22 01:29:00,0.0,1.9302,0.0010,401.33,0.21,-0.7,2.6,138.12,28.33,24.61,36.33,0.04,-272.73,-272.73,-49,559,-928,22.3,1.7,-30.9,22.4,1.8,-30.4,5.73,2.44,-31.4,27.4
2012-03-22 01:30:00,0.0,1.9304,0.0009,401.36,0.20,-1.0,0.0,138.12,28.33,24.60,36.32,0.04,-272.73,-272.74,-50,558,-925,22.3,1.7,-30.8,22.5,1.8,-30.4,5.73,2.40,-31.4,27.4
2012-03-22 01:31:00,0.0,1.9304,0.0009,401.36,0.22,-1.0,0.0,138.12,28.34,24.60,36.32,0.04,-272.72,-272.73,-51,556,-925,22.3,1.7,-30.9,22.5,1.8,-30.4,5.73,2.28,-31.3,27.4
2012-03-22 01:32:00,0.0,1.9302,0.0007,401.37,0.19,-1.0,0.0,138.12,28.34,24.61,36.32,0.04,-272.73,-272.74,-49,558,-925,22.3,1.7,-30.8,22.5,1.8,-30.4,5.73,2.49,-31.3,27.4
2012-03-22 01:33:00,0.0,1.9307,0.0008,401.39,0.23,-1.0,0.0,138.11,28.35,24.60,36.32,0.04,-272.73,-272.74,-49,558,-925,22.3,1.7,-30.9,22.5,1.8,-30.4,5.73,2.28,-31.2,27.4
2012-03-22 01:34:00,0.0,1.9307,0.0009,401.33,0.20,-0.9,0.6,138.11,28.35,24.60,36.33,0.04,-272.74,-272.73,-49,558,-925,22.3,1.7,-30.8,22.5,1.8,-30.4,5.73,2.40,-31.2,27.4
2012-03-22 01:35:00,0.0,1.9307,0.0008,401.29,0.23,-1.0,0.0,138.11,28.36,24.61,36.33,0.04,-272.73,-272.74,-49,558,-925,22.4,1.7,-30.8,22.5,1.8,-30.4,5.73,2.42,-31.1,27.5
2012-03-22 01:36:00,0.0,1.9310,0.0009,401.40,0.19,-1.0,0.0,138.11,28.37,24.61,36.32,0.04,-272.73,-272.74,-49,558,-925,22.4,1.7,-30.8,22.5,1.8,-30.4,5.73,2.27,-31.1,27.5
2012-03-22 01:37:00,0.0,1.9307,0.0008,401.40,0.19,-1.0,0.0,138.11,28.37,24.61,36.32,0.04,-272.74,-272.74,-50,558,-923,22.4,1.7,-30.8,22.5,1.8,-30.3,5.73,2.48,-31.0,27.5
2012-03-22 01:38:00,0.0,1.9313,0.0008,401.46,0.23,-0.4,4.3,138.11,28.38,24.60,36.32,0.04,-272.73,-272.74,-49,558,-925,22.4,1.7,-30.7,22.5,1.8,-30.2,5.73,2.30,-31.0,27.6
2012-03-22 01:39:00,0.0,1.9311,0.0010,401.41,0.21,-0.7,1.2,138.11,28.38,24.61,36.33,0.04,-272.74,-272.74,-49,558,-925,22.4,1.8,-30.6,22.6,1.8,-30.2,5.73,2.37,-30.9,27.6
2012-03-22 01:40:00,0.0,1.9309,0.0010,401.36,0.16,-1.0,0.2,138.11,28.39,24.61,36.33,0.04,-272.74,-272.73,-49,558,-925,22.4,1.8,-30.6,22.6,1.8,-30.2,5.73,2.43,-30.9,27.6
2012-03-22 01:41:00,0.0,1.9312,0.0010,401.45,0.21,0.3,5.3,138.11,28.40,24.61,36.32,0.04,-272.73,-272.74,-49,559,-925,22.4,1.8,-30.6,22.6,1.8,-30.1,5.73,2.27,-30.8,27.7
2012-03-22 01:42:00,0.0,1.9314,0.0010,401.42,0.18,-1.0,0.0,138.11,28.40,24.61,36.32,0.04,-272.73,-272.74,-49,559,-925,22.4,1.8,-30.6,22.6,1.8,-30.1,5.73,2.49,-30.8,27.7
2012-03-22 01:43:00,0.0,1.9315,0.0009,401.36,0.24,-0.9,0.8,138.11,28.41,24.61,36.33,0.04,-272.73,-272.73,-49,559,-925,22.4,1.8,-30.6,22.6,1.8,-30.2,5.73,2.28,-30.8,27.8
2012-03-22 01:44:00,0.0,1.9316,0.0009,401.40,0.20,-0.3,4.0,138.11,28.42,24.61,36.33,0.04,-272.74,-272.73,-49,559,-925,22.5,1.8,-30.6,22.7,1.8,-30.2,5.73,2.41,-30.7,27.8
2012-03-22 01:45:00,0.0,1.9321,0.0009,401.45,0.15,-0.3,3.2,138.11,28.43,24.61,36.33,0.04,-272.73,-272.73,-49,559,-925,22.5,1.8,-30.6,22.7,1.8,-30.1,5.73,2.39,-30.7,27.9
2012-03-22 01:46:00,0.0,1.9320,0.0009,401.41,0.18,0.6,5.0,138.11,28.44,24.61,36.33,0.04,-272.74,-272.74,-49,560,-925,22.5,1.8,-30.6,22.7,1.8,-30.1,5.73,2.30,-30.7,27.9
2012-03-22 01:47:00,0.0,1.9317,0.0009,401.44,0.16,0.1,4.3,138.11,28.44,24.61,36.33,0.04,-272.73,-272.74,-49,559,-925,22.5,1.8,-30.4,22.7,1.8,-30.0,5.73,2.47,-30.6,28.0
2012-03-22 01:48:00,0.0,1.9318,0.0009,401.40,0.17,-0.2,3.1,138.11,28.45,24.61,36.33,0.04,-272.73,-272.73,-49,560,-925,22.5,1.8,-30.3,22.7,1.9,-29.8,5.73,2.25,-30.6,28.0
2012-03-22 01:49:00,0.0,1.9320,0.0009,401.43,0.21,-0.4,4.3,138.11,28.46,24.61,36.33,0.04,-272.73,-272.73,-49,560,-925,22.5,1.8,-30.2,22.7,1.9,-29.8,5.73,2.47,-30.5,28.0
2012-03-22 01:50:00,0.0,1.9323,0.0010,401.40,0.18,1.0,9.0,138.11,28.47,24.61,36.33,0.04,-272.74,-272.74,-49,560,-925,22.5,1.8,-30.1,22.7,1.9,-29.6,5.73,2.31,-30.5,28.0
2012-03-22 01:51:00,0.0,1.9320,0.0010,401.37,0.22,1.9,8.8,138.10,28.47,24.61,36.33,0.04,-272.74,-272.73,-49,560,-925,22.6,1.9,-29.9,22.7,1.9,-29.5,5.73,2.38,-30.5,28.0
2012-03-22 01:52:00,0.0,1.9321,0.0009,401.45,0.19,-0.6,2.9,138.10,28.48,24.61,36.33,0.04,-272.73,-272.73,-49,560,-925,22.6,1.9,-29.8,22.8,1.9,-29.3,5.73,2.40,-30.5,28.0
2012-03-22 01:53:00,0.0,1.9322,0.0008,401.50,0.21,1.6,8.1,138.10,28.49,24.61,36.33,0.04,-272.73,-272.74,-49,560,-925,22.6,1.9,-29.6,22.8,2.0,-29.1,5.73,2.30,-30.4,28.1
2012-03-22 01:54:00,0.0,1.9326,0.0009,401.47,0.23,3.4,11.6,138.10,28.50,24.61,36.33,0.04,-272.74,-272.73,-49,561,-925,22.6,2.0,-29.4,22.8,2.0,-29.0,5.73,2.46,-30.4,28.1
2012-03-22 01:55:00,0.0,1.9323,0.0008,401.38,0.20,0.7,5.8,138.10,28.51,24.61,36.33,0.04,-272.73,-272.74,-49,560,-925,22.6,2.0,-29.3,22.8,2.0,-28.8,5.73,2.25,-30.4,28.1
2012-03-22 01:56:00,0.0,1.9324,0.0008,401.42,0.23,-0.2,3.7,138.10,28.52,24.61,36.33,0.04,-272.73,-272.73,-50,561,-925,22.7,2.0,-29.2,22.8,2.1,-28.7,5.73,2.48,-30.3,28.2
2012-03-22 01:57:00,0.0,1.9327,0.0009,401.35,0.18,0.2,4.4,138.10,28.52,24.61,36.34,0.04,-272.73,-272.74,-49,561,-925,22.7,2.0,-29.1,22.9,2.1,-28.7,5.73,2.26,-30.3,28.2
2012-03-22 01:58:00,0.0,1.9328,0.0011,401.36,0.18,1.8,9.3,138.10,28.53,24.61,36.33,0.04,-272.73,-272.73,-49,560,-925,22.7,2.0,-29.0,22.9,2.1,-28.6,5.73,2.46,-30.3,28.3
2012-03-22 01:59:00,0.0,1.9325,0.0009,401.42,0.19,7.9,17.9,138.10,28.54,24.61,36.33,0.04,-272.73,-272.73,-50,561,-925,22.7,2.0,-29.0,22.9,2.1,-28.5,5.73,2.35,-30.3,27.9
2012-03-22 02:00:00,0.0,1.9322,0.0008,401.36,0.22,0.8,5.0,138.11,28.54,24.61,36.33,0.04,-272.73,-272.74,-49,561,-926,22.7,2.0,-29.0,22.9,2.1,-28.5,5.73,2.31,-30.4,27.3
2012-03-22 02:01:00,0.0,1.9317,0.0011,401.28,0.19,-0.8,1.6,138.12,28.54,24.61,36.33,0.04,-272.73,-272.73,-50,561,-926,22.7,2.0,-28.9,22.8,2.1,-28.5,5.73,2.36,-30.6,26.8
2012-03-22 02:02:00,0.0,1.9310,0.0009,401.32,0.21,-0.9,0.8,138.12,28.52,24.61,36.33,0.04,-272.73,-272.74,-50,561,-926,22.7,2.0,-28.9,22.8,2.1,-28.6,5.73,2.39,-30.8,26.3
2012-03-22 02:03:00,0.0,1.9304,0.0010,401.33,0.23,-1.0,0.0,138.13,28.51,24.61,36.32,0.04,-272.73,-272.74,-50,561,-926,22.6,2.0,-29.0,22.7,2.1,-28.6,5.73,2.39,-31.0,26.0
2012-03-22 02:04:00,0.0,1.9302,0.0009,401.27,0.24,-1.0,0.0,138.14,28.48,24.61,36.33,0.04,-272.74,-272.74,-50,561,-926,22.6,2.0,-29.0,22.6,2.1,-28.6,5.73,2.37,-31.2,25.7
2012-03-22 02:05:00,0.0,1.9303,0.0009,401.28,0.22,-1.0,0.0,138.14,28.46,24.61,36.33,0.04,-272.73,-272.73,-50,560,-926,22.5,2.0,-29.0,22.5,2.1,-28.6,5.73,2.37,-31.4,25.6
2012-03-22 02:06:00,0.0,1.9302,0.0009,401.41,0.24,-1.0,0.0,138.15,28.43,24.61,36.32,0.04,-272.73,-272.73,-50,560,-926,22.5,2.0,-29.1,22.5,2.1,-28.6,5.73,2.37,-31.6,25.3
2012-03-22 02:07:00,0.0,1.9296,0.0010,401.51,0.19,-1.0,0.0,138.15,28.39,24.61,36.32,0.04,-272.74,-272.74,-50,559,-926,22.4,2.0,-29.1,22.4,2.1,-28.7,5.73,2.39,-31.7,25.3
2012-03-22 02:08:00,0.0,1.9289,0.0009,401.45,0.20,-1.0,0.0,138.16,28.36,24.61,36.32,0.04,-272.74,-272.73,-50,559,-926,22.3,2.0,-29.2,22.3,2.1,-28.9,5.73,2.43,-31.8,25.8
2012-03-22 02:09:00,0.0,1.9291,0.0008,401.31,0.23,-1.0,0.0,138.15,28.33,24.61,36.32,0.04,-272.73,-272.73,-50,559,-925,22.3,2.0,-29.3,22.3,2.1,-29.0,5.73,2.46,-31.8,26.1
2012-03-22 02:10:00,0.0,1.9292,0.0009,401.28,0.22,-1.0,0.0,138.15,28.31,24.60,36.32,0.04,-272.73,-272.74,-50,559,-925,22.3,2.0,-29.3,22.3,2.1,-29.0,5.73,2.26,-31.7,26.4
2012-03-22 02:11:00,0.0,1.9293,0.0009,401.30,0.21,-1.0,0.0,138.14,28.30,24.60,36.31,0.04,-272.73,-272.73,-50,558,-925,22.3,2.0,-29.4,22.3,2.1,-29.0,5.73,2.49,-31.6,26.6
2012-03-22 02:12:00,0.0,1.9293,0.0007,401.23,0.19,-1.0,0.0,138.14,28.29,24.60,36.32,0.04,-272.73,-272.73,-50,558,-925,22.3,2.0,-29.4,22.3,2.1,-28.9,5.73,2.26,-31.5,26.8
2012-03-22 02:13:00,0.0,1.9295,0.0009,401.16,0.22,-1.0,0.0,138.14,28.28,24.60,36.32,0.04,-272.73,-272.74,-50,558,-925,22.2,2.0,-29.3,22.3,2.1,-29.0,5.73,2.48,-31.4,26.9
2012-03-22 02:14:00,0.0,1.9294,0.0010,401.19,0.20,-1.0,0.0,138.13,28.28,24.60,36.32,0.04,-272.74,-272.74,-50,559,-927,22.2,2.0,-29.3,22.4,2.1,-29.0,5.73,2.29,-31.3,27.0
2012-03-22 02:15:00,0.0,1.9293,0.0009,401.19,0.21,-1.0,0.0,138.13,28.28,24.61,36.32,0.04,-272.74,-272.73,-50,558,-925,22.3,2.0,-29.2,22.4,2.1,-28.8,5.73,2.43,-31.2,27.1
2012-03-22 02:16:00,0.0,1.9296,0.0008,401.05,0.19,-1.0,0.0,138.13,28.28,24.60,36.32,0.04,-272.73,-272.73,-50,558,-925,22.3,2.0,-29.1,22.4,2.1,-28.6,5.73,2.35,-31.1,27.1
2012-03-22 02:17:00,0.0,1.9297,0.0009,401.02,0.22,-1.0,0.0,138.13,28.29,24.60,36.32,0.04,-272.74,-272.74,-50,558,-925,22.3,2.1,-29.0,22.4,2.1,-28.6,5.73,2.37,-31.1,27.2
2012-03-22 02:18:00,0.0,1.9295,0.0010,401.14,0.21,-1.0,0.0,138.12,28.29,24.60,36.32,0.04,-272.73,-272.74,-49,558,-925,22.3,2.1,-28.8,22.4,2.2,-28.4,5.73,2.41,-31.0,27.2